Aérodrome :
LOGIN :

S'inscrire | Disclaimer

   EN    FR    IT 

 










Légende :    VFR   VFR Marginal   IFR   IFR Intensif   IFR Très Intensif
Visi : 
Plafond : 
>= 8 km
>= 3000ft
5 à 8 km
1000 à 3000 ft
1500m à 5 km
500 à 1000 ft
800 à 1500m
200 à 500 ft
< 800m
< 200 ft
Symboles :   Orages  Brouillard  Fortes neiges  Fortes précipitations  Vent > 20 kt
SIGMETs :   Divers  Orages  Givrage  Turbulence  Onde Orograph.  Cendres Volcan.







- Altitude de l'aérodrome : -11 ft
- Code IATA : AMS


EHAM - Amsterdam Schiphol

DERNIER METAR :
  • 181955Z 05003KT CAVOK 11/08 Q1026 NOSIG

METARs EXPIRÉS :
  • 181925Z 04004KT CAVOK 10/08 Q1026 NOSIG
  • 181855Z 04005KT 9999 FEW035 11/08 Q1026 NOSIG
  • 181825Z 03006KT CAVOK 12/09 Q1025 NOSIG
  • 181755Z 01005KT 9999 FEW040 12/08 Q1025 NOSIG
  • 181725Z 01005KT 9999 FEW037 12/08 Q1025 NOSIG

TAF TAF EHAM
Valide du 18 à 18h jusqu'au 20 à 00h UTC


181703Z 1818/1924 06005KT 9999 SCT025
BECMG 1915/1918 VRB03KT CAVOK
Pas de NOTAMs connus pour ce terrain.



MET'MAP, la Météo Aéronautique d'un coup d'oeil ! - Copyright ORBIFLY Décembre 2007 - Disclaimer

ORBIFLY MET'MAP TEAM :

Programmation & Développement : Alexandra Zaïnal
Conception & Développement : Baudouin d'Aumeries
Co-Programmation & Développement : Marc-Olivier Méhu
Soutien technique & logistique : Manuel Goepfert

Contact : metmap@orbifly.com




SOURCES & CREDITS :

   NOAA